Franklin, PA

3:31 AM EDT on April 26, 2017 (GMT -0400)
Venango Regional

Weather History for KFKL - October, 2013

Change the Weather History Date:

Sunday, October 20, 2013

  Actual Average Record
Temperature  
Mean Temperature 45 °F -  
Max Temperature 55 °F 56 °F 81 °F (1963)
Min Temperature 35 °F 36 °F 22 °F (1934)
Degree Days  
Heating Degree Days 20    
Moisture  
Dew Point 35 °F    
Average Humidity 71    
Maximum Humidity 93    
Minimum Humidity 47    
Precipitation  
Precipitation 0.00 in - - ()
Sea Level Pressure  
Sea Level Pressure 29.96 in    
Wind  
Wind Speed 10 mph (SSW)    
Max Wind Speed 20 mph    
Max Gust Speed 26 mph    
Visibility 10 miles    
Events      
Averages and records for this station are not official NWS values.
T = Trace of Precipitation, MM = Missing Value Source: NWS Daily Summary

Daily Weather History Graph

Daily Weather History Graph

Search for Another Location

Airport or City:

Trip Planner

Search our weather history database for the weather conditions in past years. The results will help you decide how hot, cold, wet, or windy it might be!

Date:

Astronomy

Oct. 20, 2013 Rise Set
Actual Time 7:37 AM EDT 6:30 PM EDT
Civil Twilight 7:09 AM EDT 6:58 PM EDT
Nautical Twilight 6:36 AM EDT 7:30 PM EDT
Astronomical Twilight 6:04 AM EDT 8:02 PM EDT
Moon 7:36 PM EDT (10/20) 9:14 AM EDT (10/20)
Length of Visible Light 11h 49m
Length of Day
10h 53m
Full, 97% of the Moon is Illuminated
Oct 20
Full
Oct 26
Last Quarter
Nov 3
New
Nov 10
First Quarter
Nov 17
Full

Hourly Weather History & Observations

Time (EDT) Temp. Windchill Dew Point Humidity Pressure Visibility Wind Dir Wind Speed Gust Speed Precip Events Conditions
12:15 AM 41.0 °F 34.3 °F 35.6 °F 81% 29.90 in 10.0 mi WSW 11.5 mph 17.3 mph N/A   Overcast
12:35 AM 41.0 °F 35.2 °F 35.6 °F 81% 29.90 in 10.0 mi SW 9.2 mph 17.3 mph N/A   Overcast
12:55 AM 39.2 °F 32.5 °F 35.6 °F 87% 29.91 in 10.0 mi SW 10.4 mph - N/A   Overcast
1:15 AM 39.2 °F 32.5 °F 35.6 °F 87% 29.90 in 10.0 mi SW 10.4 mph 16.1 mph N/A   Overcast
1:35 AM 39.2 °F 33.0 °F 35.6 °F 87% 29.90 in 10.0 mi SW 9.2 mph - N/A   Mostly Cloudy
1:55 AM 39.2 °F 32.5 °F 33.8 °F 81% 29.90 in 10.0 mi SW 10.4 mph - N/A   Scattered Clouds
2:15 AM 37.4 °F 30.8 °F 33.8 °F 87% 29.90 in 10.0 mi SW 9.2 mph - N/A   Clear
2:35 AM 37.4 °F 32.1 °F 33.8 °F 87% 29.90 in 10.0 mi SSW 6.9 mph - N/A   Clear
2:55 AM 37.4 °F 30.8 °F 33.8 °F 87% 29.91 in 10.0 mi SSW 9.2 mph - N/A   Clear
3:15 AM 37.4 °F 31.4 °F 33.8 °F 87% 29.91 in 10.0 mi SW 8.1 mph - N/A   Clear
3:35 AM 37.4 °F 31.4 °F 33.8 °F 87% 29.91 in 10.0 mi SSW 8.1 mph - N/A   Clear
3:55 AM 35.6 °F 29.2 °F 33.8 °F 93% 29.90 in 10.0 mi SSW 8.1 mph - N/A   Clear
4:15 AM 35.6 °F 29.2 °F 33.8 °F 93% 29.91 in 10.0 mi SW 8.1 mph - N/A   Clear
4:35 AM 35.6 °F 28.6 °F 33.8 °F 93% 29.91 in 10.0 mi SW 9.2 mph - N/A   Clear
4:55 AM 35.6 °F 29.2 °F 32.0 °F 87% 29.91 in 10.0 mi SW 8.1 mph - N/A   Clear
5:15 AM 35.6 °F 29.9 °F 32.0 °F 87% 29.91 in 10.0 mi SSW 6.9 mph - N/A   Clear
5:35 AM 35.6 °F 29.2 °F 32.0 °F 87% 29.91 in 10.0 mi SSW 8.1 mph - N/A   Clear
5:55 AM 35.6 °F 29.9 °F 32.0 °F 87% 29.91 in 10.0 mi SSW 6.9 mph - N/A   Clear
6:15 AM 35.6 °F 29.9 °F 32.0 °F 87% 29.92 in 10.0 mi SW 6.9 mph - N/A   Clear
6:35 AM 35.6 °F 29.9 °F 32.0 °F 87% 29.92 in 10.0 mi SSW 6.9 mph - N/A   Clear
6:55 AM 35.6 °F 29.2 °F 32.0 °F 87% 29.92 in 10.0 mi SSW 8.1 mph - N/A   Clear
7:15 AM 35.6 °F 29.9 °F 32.0 °F 87% 29.93 in 10.0 mi SSW 6.9 mph - N/A   Clear
7:35 AM 35.6 °F 29.2 °F 32.0 °F 87% 29.93 in 10.0 mi SSW 8.1 mph - N/A   Clear
7:55 AM 35.6 °F 29.2 °F 32.0 °F 87% 29.94 in 10.0 mi SSW 8.1 mph - N/A   Clear
8:15 AM 35.6 °F 29.9 °F 32.0 °F 87% 29.94 in 10.0 mi SSW 6.9 mph - N/A   Clear
8:35 AM 37.4 °F 31.4 °F 33.8 °F 87% 29.95 in 10.0 mi SSW 8.1 mph - N/A   Clear
8:55 AM 37.4 °F 31.4 °F 33.8 °F 87% 29.97 in 10.0 mi SSW 8.1 mph - N/A   Clear
9:15 AM 39.2 °F 33.6 °F 33.8 °F 81% 29.97 in 10.0 mi SSW 8.1 mph - N/A   Clear
9:35 AM 39.2 °F 33.0 °F 35.6 °F 87% 29.97 in 10.0 mi SSW 9.2 mph - N/A   Clear
9:55 AM 42.8 °F 36.2 °F 35.6 °F 76% 29.98 in 10.0 mi SSW 12.7 mph - N/A   Mostly Cloudy
10:15 AM 42.8 °F 37.0 °F 35.6 °F 76% 29.98 in 10.0 mi SSW 10.4 mph - N/A   Overcast
10:35 AM 44.6 °F 39.7 °F 37.4 °F 76% 29.98 in 10.0 mi SSW 9.2 mph - N/A   Mostly Cloudy
10:55 AM 44.6 °F 39.2 °F 35.6 °F 71% 29.98 in 10.0 mi SSW 10.4 mph - N/A   Overcast
11:15 AM 46.4 °F 41.5 °F 35.6 °F 66% 29.98 in 10.0 mi SSW 10.4 mph - N/A   Mostly Cloudy
11:35 AM 48.2 °F - 37.4 °F 66% 29.99 in 10.0 mi WSW 10.4 mph 18.4 mph N/A   Partly Cloudy
11:55 AM 50.0 °F - 35.6 °F 58% 29.98 in 10.0 mi SSW 10.4 mph - N/A   Scattered Clouds
12:15 PM 51.8 °F - 37.4 °F 58% 29.98 in 10.0 mi South 10.4 mph 19.6 mph N/A   Partly Cloudy
12:35 PM 53.6 °F - 37.4 °F 54% 29.98 in 10.0 mi SW 12.7 mph 18.4 mph N/A   Scattered Clouds
12:55 PM 53.6 °F - 37.4 °F 54% 29.98 in 10.0 mi SSW 13.8 mph 23.0 mph N/A   Mostly Cloudy
1:15 PM 51.8 °F - 35.6 °F 54% 29.98 in 10.0 mi SW 11.5 mph 18.4 mph N/A   Mostly Cloudy
1:35 PM 55.4 °F - 37.4 °F 51% 29.98 in 10.0 mi SW 18.4 mph 24.2 mph N/A   Mostly Cloudy
1:55 PM 53.6 °F - 35.6 °F 51% 29.97 in 10.0 mi SSW 16.1 mph 26.5 mph N/A   Mostly Cloudy
2:15 PM 53.6 °F - 35.6 °F 51% 29.97 in 10.0 mi SSW 16.1 mph 25.3 mph N/A   Mostly Cloudy
2:35 PM 51.8 °F - 33.8 °F 50% 29.97 in 10.0 mi SSW 15.0 mph 25.3 mph N/A   Mostly Cloudy
2:55 PM 53.6 °F - 35.6 °F 51% 29.97 in 10.0 mi WSW 10.4 mph 18.4 mph N/A   Overcast
3:15 PM 53.6 °F - 35.6 °F 51% 29.97 in 10.0 mi SSW 15.0 mph 24.2 mph N/A   Overcast
3:35 PM 53.6 °F - 35.6 °F 51% 29.97 in 10.0 mi SW 19.6 mph 25.3 mph N/A   Overcast
3:55 PM 53.6 °F - 35.6 °F 51% 29.98 in 10.0 mi WSW 16.1 mph 20.7 mph N/A   Mostly Cloudy
4:15 PM 53.6 °F - 35.6 °F 51% 29.99 in 10.0 mi WSW 10.4 mph 21.9 mph N/A   Partly Cloudy
4:35 PM 53.6 °F - 35.6 °F 51% 29.99 in 10.0 mi SW 9.2 mph 18.4 mph N/A   Mostly Cloudy
4:55 PM 53.6 °F - 33.8 °F 47% 29.99 in 10.0 mi SW 11.5 mph 19.6 mph N/A   Mostly Cloudy
5:15 PM 53.6 °F - 33.8 °F 47% 29.99 in 10.0 mi SSW 11.5 mph - N/A   Scattered Clouds
5:35 PM 51.8 °F - 33.8 °F 50% 29.99 in 10.0 mi SW 8.1 mph - N/A   Scattered Clouds
5:55 PM 51.8 °F - 35.6 °F 54% 29.99 in 10.0 mi SSW 6.9 mph - N/A   Mostly Cloudy
6:15 PM 51.8 °F - 35.6 °F 54% 30.00 in 10.0 mi SSW 8.1 mph - N/A   Overcast
6:35 PM 51.8 °F - 35.6 °F 54% 30.00 in 10.0 mi SSW 5.8 mph - N/A   Overcast
6:55 PM 48.2 °F - 35.6 °F 62% 30.00 in 10.0 mi SSW 6.9 mph - N/A   Overcast
7:15 PM 46.4 °F 42.9 °F 33.8 °F 62% 30.01 in 10.0 mi South 6.9 mph - N/A   Scattered Clouds
7:35 PM 44.6 °F 40.2 °F 33.8 °F 66% 30.01 in 10.0 mi South 8.1 mph - N/A   Partly Cloudy
7:55 PM 44.6 °F 39.7 °F 33.8 °F 66% 30.01 in 10.0 mi South 9.2 mph - N/A   Clear
8:15 PM 44.6 °F 39.7 °F 35.6 °F 71% 30.01 in 10.0 mi SSW 9.2 mph - N/A   Clear
8:35 PM 44.6 °F 39.7 °F 35.6 °F 71% 30.01 in 10.0 mi South 9.2 mph - N/A   Clear
8:55 PM 44.6 °F 39.7 °F 35.6 °F 71% 30.01 in 10.0 mi South 9.2 mph - N/A   Clear
9:15 PM 44.6 °F 40.2 °F 35.6 °F 71% 30.01 in 10.0 mi South 8.1 mph - N/A   Clear
9:35 PM 46.4 °F 42.4 °F 35.6 °F 66% 30.02 in 10.0 mi SSW 8.1 mph - N/A   Clear
9:55 PM 44.6 °F 39.2 °F 35.6 °F 71% 30.02 in 10.0 mi South 10.4 mph - N/A   Clear
10:15 PM 44.6 °F 39.2 °F 35.6 °F 71% 30.03 in 10.0 mi South 10.4 mph - N/A   Clear
10:35 PM 44.6 °F 39.2 °F 35.6 °F 71% 30.03 in 10.0 mi SSW 10.4 mph - N/A   Clear
10:55 PM 44.6 °F 38.8 °F 35.6 °F 71% 30.03 in 10.0 mi South 11.5 mph - N/A   Clear
11:15 PM 44.6 °F 38.8 °F 35.6 °F 71% 30.02 in 10.0 mi South 11.5 mph - N/A   Clear
11:35 PM 44.6 °F 39.2 °F 33.8 °F 66% 30.02 in 10.0 mi South 10.4 mph - N/A   Clear
11:55 PM 44.6 °F 39.7 °F 33.8 °F 66% 30.02 in 10.0 mi South 9.2 mph - N/A   Clear